Hourly Weather El Guna

Today, 22 September, Tuesday

Time Temperature Precipitation Wind Pressure Humidity
00:00 +29°C° 0 mm 1 mps 730 mmHg 33%
01:00 +29°C° 0 mm 1 mps 730 mmHg 34%
02:00 +28°C° 0 mm 1 mps 730 mmHg 38%
03:00 +28°C° 0 mm 1 mps 730 mmHg 40%
04:00 +27°C° 0 mm 1 mps 730 mmHg 42%
05:00 +27°C° 0 mm 1 mps 730 mmHg 44%
06:00 +29°C° 0 mm 1 mps 731 mmHg 39%
07:00 +32°C° 0 mm 2 mps 731 mmHg 33%
08:00 +35°C° 0 mm 2 mps 731 mmHg 28%
09:00 +37°C° 0 mm 3 mps 732 mmHg 25%
10:00 +39°C° 0 mm 3 mps 732 mmHg 22%
11:00 +42°C° 0 mm 4 mps 732 mmHg 19%
12:00 +42°C° 0 mm 5 mps 732 mmHg 18%
13:00 +44°C° 0 mm 6 mps 731 mmHg 17%
14:00 +44°C° 0 mm 6 mps 731 mmHg 17%
15:00 +42°C° 0 mm 6 mps 731 mmHg 18%
16:00 +41°C° 0 mm 5 mps 731 mmHg 19%
17:00 +40°C° 0 mm 5 mps 731 mmHg 20%
18:00 +37°C° 0 mm 4 mps 731 mmHg 24%
19:00 +34°C° 0 mm 4 mps 731 mmHg 27%
20:00 +31°C° 0 mm 3 mps 731 mmHg 30%
21:00 +31°C° 0 mm 2 mps 731 mmHg 30%
22:00 +31°C° 0 mm 2 mps 731 mmHg 29%
23:00 +30°C° 0 mm 2 mps 731 mmHg 29%

Tomorrow, 23 September, Wednesday

Time Temperature Precipitation Wind Pressure Humidity
00:00 +30°C° 0 mm 2 mps 731 mmHg 32%
01:00 +29°C° 0 mm 2 mps 731 mmHg 35%
02:00 +28°C° 0 mm 2 mps 731 mmHg 38%
03:00 +27°C° 0 mm 2 mps 731 mmHg 42%
04:00 +27°C° 0 mm 2 mps 731 mmHg 45%
05:00 +26°C° 0 mm 2 mps 731 mmHg 48%
06:00 +28°C° 0 mm 2 mps 731 mmHg 42%
07:00 +31°C° 0 mm 2 mps 731 mmHg 37%
08:00 +34°C° 0 mm 3 mps 732 mmHg 32%
09:00 +36°C° 0 mm 3 mps 732 mmHg 28%
10:00 +38°C° 0 mm 4 mps 732 mmHg 25%
11:00 +41°C° 0 mm 5 mps 732 mmHg 22%
12:00 +41°C° 0 mm 5 mps 732 mmHg 21%
13:00 +42°C° 0 mm 6 mps 731 mmHg 21%
14:00 +42°C° 0 mm 6 mps 730 mmHg 21%
15:00 +41°C° 0 mm 6 mps 730 mmHg 24%
16:00 +39°C° 0 mm 6 mps 730 mmHg 26%
17:00 +38°C° 0 mm 6 mps 730 mmHg 29%
18:00 +35°C° 0 mm 5 mps 730 mmHg 32%
19:00 +33°C° 0 mm 4 mps 730 mmHg 36%
20:00 +31°C° 0 mm 2 mps 731 mmHg 40%
21:00 +30°C° 0 mm 2 mps 731 mmHg 40%
22:00 +30°C° 0 mm 2 mps 731 mmHg 40%
23:00 +29°C° 0 mm 2 mps 731 mmHg 39%

Day after tomorrow, 24 September, Thursday

Time Temperature Precipitation Wind Pressure Humidity
00:00 +29°C° 0 mm 2 mps 730 mmHg 42%
01:00 +28°C° 0 mm 2 mps 730 mmHg 45%
02:00 +27°C° 0 mm 2 mps 730 mmHg 48%
03:00 +27°C° 0 mm 2 mps 730 mmHg 52%
04:00 +26°C° 0 mm 2 mps 730 mmHg 57%
05:00 +25°C° 0 mm 2 mps 730 mmHg 61%
06:00 +27°C° 0 mm 2 mps 731 mmHg 54%
07:00 +29°C° 0 mm 3 mps 731 mmHg 47%
08:00 +31°C° 0 mm 3 mps 731 mmHg 40%
09:00 +34°C° 0 mm 4 mps 731 mmHg 35%
10:00 +36°C° 0 mm 4 mps 731 mmHg 30%
11:00 +39°C° 0 mm 5 mps 731 mmHg 25%
12:00 +40°C° 0 mm 5 mps 731 mmHg 23%
13:00 +40°C° 0 mm 6 mps 731 mmHg 22%
14:00 +41°C° 0 mm 6 mps 730 mmHg 20%
15:00 +40°C° 0 mm 6 mps 730 mmHg 21%
16:00 +39°C° 0 mm 5 mps 730 mmHg 22%
17:00 +37°C° 0 mm 5 mps 730 mmHg 22%
18:00 +35°C° 0 mm 4 mps 730 mmHg 26%
19:00 +31°C° 0 mm 3 mps 730 mmHg 30%
20:00 +29°C° 0 mm 2 mps 730 mmHg 34%
21:00 +29°C° 0 mm 3 mps 731 mmHg 33%
22:00 +29°C° 0 mm 3 mps 731 mmHg 33%
23:00 +29°C° 0 mm 3 mps 731 mmHg 32%

25 September, Friday

Time Temperature Precipitation Wind Pressure Humidity
00:00 +28°C° 0 mm 3 mps 730 mmHg 36%
01:00 +27°C° 0 mm 3 mps 730 mmHg 39%
02:00 +27°C° 0 mm 3 mps 730 mmHg 42%
03:00 +26°C° 0 mm 3 mps 730 mmHg 42%
04:00 +26°C° 0 mm 3 mps 730 mmHg 42%
05:00 +26°C° 0 mm 2 mps 730 mmHg 42%
06:00 +28°C° 0 mm 3 mps 730 mmHg 34%
07:00 +30°C° 0 mm 3 mps 731 mmHg 26%
08:00 +33°C° 0 mm 3 mps 731 mmHg 19%
09:00 +35°C° 0 mm 4 mps 731 mmHg 16%
10:00 +37°C° 0 mm 4 mps 731 mmHg 13%
11:00 +40°C° 0 mm 4 mps 731 mmHg 11%
12:00 +40°C° 0 mm 5 mps 730 mmHg 11%
13:00 +41°C° 0 mm 6 mps 730 mmHg 11%
14:00 +41°C° 0 mm 7 mps 730 mmHg 10%
15:00 +40°C° 0 mm 6 mps 729 mmHg 12%
16:00 +39°C° 0 mm 6 mps 729 mmHg 13%
17:00 +36°C° 0 mm 6 mps 729 mmHg 14%
18:00 +34°C° 0 mm 5 mps 729 mmHg 17%
19:00 +32°C° 0 mm 4 mps 729 mmHg 20%
20:00 +29°C° 0 mm 3 mps 730 mmHg 23%
21:00 +29°C° 0 mm 3 mps 730 mmHg 27%
22:00 +28°C° 0 mm 3 mps 730 mmHg 32%
23:00 +28°C° 0 mm 3 mps 730 mmHg 36%

26 September, Saturday

Time Temperature Precipitation Wind Pressure Humidity
00:00 +28°C° 0 mm 3 mps 730 mmHg 39%
01:00 +27°C° 0 mm 2 mps 729 mmHg 42%
02:00 +26°C° 0 mm 2 mps 729 mmHg 45%
03:00 +26°C° 0 mm 2 mps 729 mmHg 47%
04:00 +26°C° 0 mm 3 mps 729 mmHg 49%
05:00 +26°C° 0 mm 3 mps 729 mmHg 52%
06:00 +28°C° 0 mm 3 mps 730 mmHg 47%
07:00 +30°C° 0 mm 4 mps 730 mmHg 42%
08:00 +32°C° 0 mm 4 mps 730 mmHg 37%
09:00 +34°C° 0 mm 4 mps 730 mmHg 32%
10:00 +36°C° 0 mm 5 mps 730 mmHg 27%
11:00 +37°C° 0 mm 5 mps 730 mmHg 22%
12:00 +39°C° 0 mm 6 mps 730 mmHg 21%
13:00 +40°C° 0 mm 6 mps 729 mmHg 19%
14:00 +40°C° 0 mm 7 mps 729 mmHg 18%
15:00 +39°C° 0 mm 7 mps 729 mmHg 20%
16:00 +38°C° 0 mm 7 mps 729 mmHg 21%
17:00 +35°C° 0 mm 6 mps 729 mmHg 23%
18:00 +33°C° 0 mm 5 mps 729 mmHg 27%
19:00 +30°C° 0 mm 4 mps 729 mmHg 30%
20:00 +28°C° 0 mm 2 mps 730 mmHg 33%
21:00 +28°C° 0 mm 2 mps 730 mmHg 34%
22:00 +28°C° 0 mm 3 mps 730 mmHg 34%
23:00 +27°C° 0 mm 3 mps 730 mmHg 35%

27 September, Sunday

Time Temperature Precipitation Wind Pressure Humidity
00:00 +27°C° 0 mm 3 mps 730 mmHg 37%
01:00 +27°C° 0 mm 3 mps 730 mmHg 40%
02:00 +27°C° 0 mm 3 mps 729 mmHg 43%
03:00 +26°C° 0 mm 3 mps 730 mmHg 45%
04:00 +25°C° 0 mm 2 mps 730 mmHg 47%
05:00 +24°C° 0 mm 2 mps 730 mmHg 49%
06:00 +26°C° 0 mm 2 mps 730 mmHg 43%
07:00 +28°C° 0 mm 3 mps 731 mmHg 37%
08:00 +30°C° 0 mm 3 mps 731 mmHg 31%
09:00 +33°C° 0 mm 3 mps 731 mmHg 27%
10:00 +34°C° 0 mm 3 mps 731 mmHg 24%
11:00 +36°C° 0 mm 3 mps 731 mmHg 20%
12:00 +37°C° 0 mm 4 mps 730 mmHg 20%
13:00 +38°C° 0 mm 4 mps 730 mmHg 20%
14:00 +40°C° 0 mm 5 mps 729 mmHg 20%
15:00 +38°C° 0 mm 4 mps 729 mmHg 22%
16:00 +37°C° 0 mm 4 mps 729 mmHg 25%
17:00 +35°C° 0 mm 4 mps 729 mmHg 27%
18:00 +34°C° 0 mm 4 mps 729 mmHg 28%
19:00 +31°C° 0 mm 3 mps 730 mmHg 29%
20:00 +30°C° 0 mm 3 mps 730 mmHg 30%
21:00 +29°C° 0 mm 3 mps 730 mmHg 36%
22:00 +28°C° 0 mm 3 mps 730 mmHg 41%
23:00 +27°C° 0 mm 3 mps 730 mmHg 46%
Show more